Zurück zum Katalog

STARLINK-36143

AktivKommunikationVLEO
NORAD 67056·PAYLOAD·🇺🇸 United States

Gestartet Dec 11, 2025 von Cape Canaveral Space Force Station

Loading…

Nächste Überflüge (nächste 24 Stunden)

TLE

AktuellSource: CelesTrak SupGP

Epoche: Sep 15, 2026, 02:35 UTC

1 67056C 25294AC  26258.10812500 -.00028977  00000+0 -10506-2 0  2582
2 67056  43.0043  48.2074 0001529 263.3879 318.5377 15.27560326    12

Verfolge STARLINK-36143 in Echtzeit mit AllMySat

Download on the App Store